Location: Congrier
(47.8099°N, 1.1170°W)
Time: 19:44:59
(UTC+00:00)

Cosmos 2322 Rocket - Pass Details

Date: 28 January 2023
Orbit: 831 x 851 km, 71.0° (Epoch: 25 March)

Event Time Altitude Azimuth Distance (km) Brightness Sun altitude
Rises 19:44:35 0° 202° (SSW) 3,364 5.6 -27.9°
Reaches altitude 10° 19:47:00 10° 201° (SSW) 2,433 4.8 -28.3°
Enters shadow 19:50:57 48° 195° (SSW) 1,079 2.7 -28.9°
